510  
ASUS43 KFSD 192210  
RWRFSD  
 
WEATHER ROUNDUP FOR SE SOUTH DAKOTA/SW MINNESOTA/NW IOWA  
NATIONAL WEATHER SERVICE SIOUX FALLS SD  
400 PM CST WED FEB 19 2020  
 
NOTE: "FAIR" INDICATES FEW OR NO CLOUDS BELOW 12,000 FEET WITH NO  
SIGNIFICANT WEATHER AND OR S TO VISIBILITY
.  
 
 
SDZ038>040-050-052>070-192300-  
SOUTHEAST SOUTH DAKOTA  
 
CITY SKY/WX TMP DP RH WIND PRES REMARKS
 
BROOKINGS SUNNY 9 -3 58 N10 30.64S WCI -5  
CHAMBERLAIN PTSUNNY 19 5 54 N7 30.63F WCI 10  
HURON SUNNY 8 -3 61 NW7 30.69F WCI -3  
MADISON FAIR 9 -2 61 N10 30.63S WCI -6  
MITCHELL FAIR 12 0 58 N12 30.69S WCI -2  
SIOUX FALLS PTSUNNY 15 0 51 N10 30.64F WCI 2  
WINNER CLOUDY 18 3 52 N6 30.60S WCI 10  
YANKTON MOSUNNY 17 3 54 NW10 30.66S WCI 5  

 
 
MNZ071-072-080-081-089-090-097-098-192300-  
SOUTHWEST MINNESOTA  
 
CITY SKY/WX TMP DP RH WIND PRES REMARKS
 
FAIRMONT SUNNY 8 -2 63 NW10 30.67S WCI -6  
JACKSON SUNNY 9 -2 61 N7 30.64S WCI -3  
LUVERNE SUNNY 12 0 57 N9 30.65F WCI 0  
MARSHALL SUNNY 8 -2 63 N9 30.69S WCI -5  
MONTEVIDEO SUNNY 5 -8 56 N10 30.71S WCI -10  
PIPESTONE SUNNY 10 -2 56 MISG 30.62S  
REDWOOD FALLS SUNNY 8 -6 52 N10 30.69S WCI -6  
WINDOM SUNNY 9 0 66 NW12 30.64S WCI -6  
WORTHINGTON SUNNY 11 0 61 NW13 30.63F WCI -4  

 
 
IAZ001>003-012>014-020>022-031-032-NEZ013-014-SDZ071-192300-  
NORTHWEST IOWA  
 
CITY SKY/WX TMP DP RH WIND PRES REMARKS
 
CHEROKEE PTSUNNY 15 1 53 N8 30.65S WCI 4  
DENISON LGT SNOW 14 12 92 N9G15 30.64S WCI 2  
ESTHERVILLE MOSUNNY 9 -3 58 N10 30.64S WCI -5  
LE MARS SUNNY 16 3 57 N9 30.65S WCI 4  
MAURICE FAIR 16 5 62 N12 30.63S WCI 3  
SHELDON SUNNY 12 3 67 N12 30.62S WCI -2  
SIOUX CITY PTSUNNY 13 7 77 E7 30.67R WCI 3  
SPENCER PTSUNNY 14 1 56 N13 30.64S WCI 0  
STORM LAKE SUNNY 12 1 62 N10 30.58S WCI -1  

 
 
ABBREVIATIONS USED IN REMARKS  
TC - TEMPERATURE IN CELSIUS  
WCI - WIND CHILL INDEX  
HX - HEAT INDEX  
VSB - VISIBILITY  
 
 
 
CLICK HERE TO GO TO PREVIOUS BULLETINS.

The Nexlab SD Page
The Nexlab IA Page
The Nexlab MN Page
The Nexlab NE Page Main Text Page